Weather History for Fresno, CA

Change the Weather History Date:

Saturday, May 10, 2014

  Actual Average Record
Temperature  
Mean Temperature 65 °F 69 °F  
Max Temperature 78 °F 83 °F 99 °F (1993)
Min Temperature 52 °F 55 °F 41 °F (1922)
Degree Days  
Heating Degree Days 0    
Month to date heating degree days 3  
Since 1 July heating degree days 1504  
Cooling Degree Days 0    
Month to date cooling degree days 54  
Year to date cooling degree days 198  
Growing Degree Days 15 (Base 50)    
Moisture  
Dew Point 38 °F    
Average Humidity 42    
Maximum Humidity 71    
Minimum Humidity 12    
Precipitation  
Precipitation 0.00 in 0.01 in 0.16 in (1900)
Month to date precipitation 0.01 0.18  
Year to date precipitation 4.05 7.38  
Since 1 July precipitation 4.78 11.04  
Snow  
Snow 0.00 in - - ()
Month to date snowfall 0.0  
Since 1 July snowfall 0.0  
Snow Depth 0.00 in    
Sea Level Pressure  
Sea Level Pressure 29.98 in    
Wind  
Wind Speed 16 mph (NW)    
Max Wind Speed 28 mph    
Max Gust Speed 37 mph    
Visibility 10 miles    
Events      
T = Trace of Precipitation, MM = Missing Value Source: NWS Daily Summary

Daily Weather History Graph

Daily Weather History Graph

Search for Another Location

Airport:

Trip Planner

Search our weather history database for the weather conditions in past years. The results will help you decide how hot, cold, wet, or windy it might be!

Date:

Astronomy

May. 10, 2014 Rise Set
Actual Time 5:55 AM PDT 7:55 PM PDT
Civil Twilight 5:27 AM PDT 8:24 PM PDT
Nautical Twilight 4:52 AM PDT 8:58 PM PDT
Astronomical Twilight 4:15 AM PDT 9:36 PM PDT
Moon 4:02 PM PDT (5/10) 3:24 AM PDT (5/10)
Length of Visible Light 14h 56m
Length of Day
13h 59m
Waxing Gibbous, 83% of the Moon is Illuminated
May 10
Waxing Gibbous
May 14
Full
May 21
Last Quarter
May 28
New
Jun 5
First Quarter

Hourly Weather History & Observations

Time (PDT) Temp. Dew Point Humidity Pressure Visibility Wind Dir Wind Speed Gust Speed Precip Events Conditions
12:53 AM 60.1 °F 42.1 °F 51% 30.06 in 10.0 mi WNW 17.3 mph - N/A   Clear
1:53 AM 59.0 °F 42.1 °F 53% 30.05 in 10.0 mi WNW 16.1 mph - N/A   Clear
2:53 AM 55.9 °F 42.1 °F 60% 30.03 in 10.0 mi WNW 10.4 mph - N/A   Clear
3:53 AM 55.4 °F 42.8 °F 63% 30.03 in 10.0 mi WNW 12.7 mph - N/A   Scattered Clouds
4:53 AM 54.0 °F 43.0 °F 66% 30.02 in 10.0 mi NW 12.7 mph - N/A   Partly Cloudy
5:53 AM 53.1 °F 44.1 °F 71% 30.03 in 10.0 mi NW 12.7 mph - N/A   Scattered Clouds
6:53 AM 53.1 °F 43.0 °F 69% 30.04 in 10.0 mi NW 12.7 mph - N/A   Scattered Clouds
7:53 AM 57.9 °F 43.0 °F 58% 30.05 in 10.0 mi NW 15.0 mph - N/A   Clear
8:53 AM 61.0 °F 43.0 °F 52% 30.05 in 10.0 mi WNW 19.6 mph - N/A   Clear
9:53 AM 64.9 °F 42.1 °F 43% 30.05 in 10.0 mi NW 10.4 mph - N/A   Clear
10:53 AM 66.0 °F 42.1 °F 42% 30.04 in 10.0 mi WNW 11.5 mph - N/A   Clear
11:53 AM 70.0 °F 42.1 °F 36% 30.03 in 10.0 mi WNW 15.0 mph 23.0 mph N/A   Partly Cloudy
12:53 PM 73.0 °F 41.0 °F 31% 30.00 in 10.0 mi NW 13.8 mph 21.9 mph N/A   Partly Cloudy
1:53 PM 75.9 °F 39.9 °F 27% 29.97 in 10.0 mi West 10.4 mph 23.0 mph N/A   Partly Cloudy
2:53 PM 75.9 °F 35.1 °F 23% 29.94 in 10.0 mi WNW 16.1 mph 26.5 mph N/A   Partly Cloudy
3:53 PM 77.0 °F 21.0 °F 12% 29.92 in 10.0 mi WNW 21.9 mph 31.1 mph N/A   Partly Cloudy
4:53 PM 75.9 °F 30.0 °F 19% 29.90 in 10.0 mi NW 24.2 mph 31.1 mph N/A   Partly Cloudy
5:53 PM 73.9 °F 26.1 °F 17% 29.89 in 10.0 mi NNW 23.0 mph 34.5 mph N/A   Partly Cloudy
6:53 PM 72.0 °F 25.0 °F 17% 29.89 in 10.0 mi NW 25.3 mph 32.2 mph N/A   Partly Cloudy
7:53 PM 69.8 °F 26.6 °F 20% 29.89 in 10.0 mi NW 18.4 mph 24.2 mph N/A   Partly Cloudy
8:53 PM 68.0 °F 27.0 °F 21% 29.91 in 10.0 mi WNW 16.1 mph - N/A   Clear
9:53 PM 66.0 °F 37.0 °F 34% 29.92 in 10.0 mi WNW 18.4 mph 25.3 mph N/A   Clear
10:53 PM 64.0 °F 39.0 °F 40% 29.93 in 10.0 mi NW 15.0 mph - N/A   Clear
11:53 PM 62.1 °F 37.9 °F 41% 29.92 in 10.0 mi WNW 15.0 mph - N/A   Clear